Dewpoint
39 37 36 34 33 31 31 32 33 33 33 33 33 34 35 37 36 33 32 30 30 30 31 32 32 33 34 35 37 39 41 46 40 40 41 43 42 41 41 41 40 40 39
37 35 34 32 30 29 30 31 32 31 32 32 32 32 33 35 35 34 31 29 28 28 29 30 31 32 32 33 34 35 37 38 37 33 36 35 38 39 39 39 36 33 33
35 34 32 31 31 30 30 30 31 30 30 30 30 30 32 34 33 30 29 28 28 28 29 29 31 31 30 30 31 32 34 35 34 34 32 33 32 33 33 35 35 35 28
32 32 31 30 29 29 30 29 29 28 27 28 29 30 31 31 29 27 26 26 27 27 28 29 30 29 29 28 29 30 31 31 31 30 29 29 30 31 31 30 29 30 30
31 30 30 30 30 29 28 27 27 26 26 26 26 27 28 30 29 28 26 26 25 25 27 26 27 27 28 28 27 27 28 28 28 28 27 28 27 27 27 28 27 28 31
30 29 30 30 31 32 29 27 25 24 23 24 24 26 26 28 27 26 26 25 26 25 25 26 25 27 26 26 26 28 27 26 26 26 26 25 26 27 28 28 28 27 26
30 30 30 31 30 30 28 25 23 21 21 22 22 22 25 25 26 26 25 24 23 25 24 24 24 25 26 25 24 25 25 26 26 25 24 25 25 26 26 26 26 24 25
30 28 27 28 27 27 26 25 25 22 20 19 20 22 23 24 25 25 24 22 23 23 23 23 23 24 24 23 22 22 22 23 24 24 24 24 24 25 25 25 24 25 25
25 24 25 24 24 23 24 23 21 20 20 19 19 19 20 23 24 24 22 20 20 20 20 23 22 22 24 24 21 20 20 21 22 25 24 24 24 25 25 24 23 23 22
22 21 21 20 21 20 20 20 20 20 18 16 16 18 20 19 24 24 21 19 19 18 18 19 23 21 23 23 20 19 19 19 21 20 20 20 22 23 24 23 24 21 22
20 20 20 19 19 19 18 18 18 16 16 17 16 17 17 19 20 24 23 18 17 17 17 17 19 21 21 21 21 18 18 19 19 18 19 20 20 20 21 22 22 24 21
22 22 21 20 19 18 17 16 16 17 17 16 16 17 18 19 21 21 22 21 19 16 16 17 18 19 19 19 19 19 18 18 18 17 17 17 17 18 19 21 20 22 23
22 20 21 20 19 17 15 16 16 17 17 16 16 16 17 19 19 21 21 20 19 15 16 16 17 17 17 17 17 17 17 15 15 13 13 14 16 17 17 18 18 18 19
17 19 23 21 19 19 15 15 16 16 17 16 16 16 17 17 19 19 19 19 17 16 14 13 12 16 13 12 13 14 15 14 13 12 12 13 14 15 15 16 16 17 17
20 19 19 19 19 18 17 17 16 17 16 16 17 17 17 16 19 19 19 18 16 14 10 9 9 9 9 10 10 11 11 11 11 11 11 11 12 12 13 14 14 15 15
17 16 16 16 16 16 16 16 17 16 15 16 17 18 18 19 19 19 18 17 17 14 9 7 6 7 8 8 9 9 9 9 10 10 10 10 10 10 11 12 13 13 13
16 16 16 15 15 16 15 15 13 14 14 13 13 14 15 15 16 17 16 14 13 11 7 7 6 7 7 8 8 8 8 10 11 10 9 9 10 10 10 11 12 12 11
15 17 16 16 16 15 14 14 14 12 10 9 10 10 13 13 13 13 13 10 6 7 7 6 6 7 7 8 8 8 8 8 9 9 9 9 9 9 8 9 10 10 10
12 13 14 14 14 13 13 11 10 9 8 7 6 6 7 10 9 10 9 5 5 5 6 6 7 7 7 8 8 7 7 8 8 8 8 8 8 8 7 8 9 9 10
15 17 15 13 12 12 11 10 8 7 6 6 5 4 4 4 3 3 4 3 3 4 5 5 6 6 7 8 7 6 7 7 7 7 7 8 8 9 8 8 9 9 10
15 13 13 12 12 11 10 8 8 6 5 4 4 5 5 2 2 2 2 2 2 3 4 5 5 5 6 7 6 5 7 7 7 7 7 7 8 7 9 10 10 10 11
13 12 11 10 10 10 9 8 7 6 4 3 3 3 2 2 1 0 1 1 2 3 4 6 5 6 7 7 6 6 7 7 7 7 7 7 8 9 9 10 10 11 13
13 12 10 9 8 5 6 6 5 5 4 2 2 1 1 -0 -0 -1 -1 -0 1 1 2 3 4 4 6 7 7 10 8 8 8 9 7 7 8 10 11 12 13 13 15
13 11 8 7 6 5 4 1 3 1 2 1 -1 -0 -1 -2 -3 -3 -3 -2 -1 -1 0 1 3 4 5 5 9 10 10 10 10 10 10 10 11 12 14 17 18 21 23
12 9 7 5 2 -3 -6 -1 -2 -3 -2 -2 -3 -3 -3 -3 -3 -5 -5 -4 -4 -3 -2 -1 1 3 4 6 9 10 9 9 10 11 12 13 13 15 17 19 22 26 28
11 9 6 4 0 -3 -6 -10 -9 -7 -7 -5 -6 -8 -6 -6 -5 -7 -6 -6 -6 -5 -4 -2 -1 1 3 7 9 11 8 9 10 11 13 13 14 17 19 21 24 27 27
Lifted_Index
5 5 5 5 6 7 7 8 9 9 9 10 11 11 13 14 14 12 12 12 11 11 11 10 10 10 10 9 8 6 5 4 3 5 8 10 9 8 8 10 11 11 10
5 5 6 6 7 7 8 9 10 10 10 11 12 13 14 15 15 14 13 13 12 12 12 11 11 11 11 11 9 8 7 7 7 7 10 12 11 11 11 11 12 12 12
6 6 7 7 8 9 9 10 11 11 11 12 13 14 16 17 17 16 16 16 15 14 14 13 13 13 13 13 12 11 11 11 11 11 12 13 14 14 14 13 14 14 14
7 7 8 9 10 10 11 12 13 14 14 14 14 15 17 18 19 19 19 19 18 18 18 18 17 17 16 16 15 14 14 13 13 13 13 13 15 16 16 15 16 16 16
8 8 9 10 11 12 13 14 15 16 16 16 16 16 18 19 20 21 21 22 21 21 21 22 22 22 22 21 20 19 17 15 14 13 13 13 15 16 16 16 16 16 16
9 9 11 12 13 14 15 16 17 17 17 17 17 18 19 20 21 21 22 22 23 23 23 24 24 25 25 24 24 23 22 19 17 16 15 15 16 17 17 17 16 16 15
10 11 12 13 14 15 16 17 18 18 18 18 18 19 20 20 21 22 22 22 23 23 23 23 24 24 24 25 25 25 24 23 22 21 20 19 20 21 21 20 19 18 18
11 12 13 14 15 16 17 18 18 18 18 19 19 19 20 21 21 22 22 22 23 23 23 23 23 23 23 24 24 24 24 24 24 24 24 24 24 24 24 23 22 22 21
13 13 14 15 16 17 18 18 19 19 19 19 19 20 20 21 22 22 22 22 23 23 23 23 23 23 23 23 23 23 23 23 24 24 24 24 25 25 24 24 23 22 22
14 15 16 17 18 18 19 19 19 19 19 19 19 20 20 21 21 22 22 22 22 23 23 23 23 23 23 23 22 22 22 22 23 23 23 23 24 24 24 24 23 22 21
16 17 18 18 19 19 19 20 20 20 20 19 20 20 20 21 21 21 21 21 22 22 22 23 23 23 23 23 23 22 22 22 22 22 22 22 22 23 23 23 23 23 22
17 18 18 19 20 20 20 20 20 20 20 19 19 20 20 20 21 21 21 21 21 21 22 22 23 23 23 23 23 22 22 22 22 22 21 21 21 22 22 23 23 23 23
18 18 19 19 19 19 19 19 19 19 19 19 19 19 19 20 20 21 21 21 21 21 21 22 22 23 23 22 22 22 22 22 22 21 21 21 21 21 22 22 22 23 23
18 18 19 19 19 19 19 20 19 19 19 19 19 19 19 19 20 20 20 20 21 21 21 21 22 22 22 22 22 21 21 21 21 21 20 20 21 21 21 22 22 22 21
18 18 19 19 19 19 20 20 20 21 21 20 20 20 20 20 20 20 20 20 20 20 20 20 20 20 20 20 20 20 20 20 20 20 20 20 20 20 21 21 21 20 20
18 18 19 19 19 19 20 20 21 22 22 21 21 20 20 20 20 20 20 20 19 19 18 18 18 18 18 18 18 18 19 19 19 19 19 18 18 18 18 18 18 18 17
19 19 19 19 19 20 20 20 21 21 21 21 21 21 20 20 20 19 19 19 18 17 16 16 15 15 15 15 15 15 15 16 16 15 15 14 14 14 14 14 13 13 13
19 19 19 19 19 20 20 20 20 20 20 20 20 20 20 19 19 18 18 17 16 15 14 13 12 12 12 12 12 11 11 11 11 11 10 10 10 10 10 9 9 9 9
19 19 19 19 19 20 20 20 19 19 19 19 19 19 18 18 17 16 15 14 13 12 11 10 10 10 9 9 9 9 8 8 8 8 8 8 8 8 8 8 8 8 7
19 19 19 19 19 19 19 19 19 19 18 18 18 18 18 16 15 14 13 12 10 9 9 9 9 9 9 9 8 8 8 8 8 8 8 8 8 8 8 8 8 8 8
19 19 19 19 19 18 18 18 18 18 18 18 18 18 18 16 14 13 12 11 10 9 9 9 9 9 9 9 9 8 8 8 8 8 8 8 8 8 8 8 8 8 8
19 19 19 18 18 18 18 18 18 18 18 18 18 18 18 16 15 13 12 11 11 11 11 10 10 10 10 10 10 10 9 9 9 9 9 9 9 9 9 9 9 9 9
19 19 18 18 18 18 18 18 18 17 17 18 18 18 17 16 15 13 13 12 13 13 12 11 11 11 11 11 12 12 11 11 10 10 9 9 9 9 9 9 9 9 9
19 19 18 18 18 18 18 18 17 17 17 17 17 17 17 16 15 14 13 13 13 13 13 13 12 11 11 12 12 13 13 12 12 11 10 10 9 9 9 9 9 10 10
19 19 18 18 18 18 18 17 17 17 17 17 17 17 17 16 15 14 14 13 14 14 14 13 13 12 11 11 12 13 13 13 12 11 11 10 9 9 9 10 10 10 11
19 19 18 18 18 18 18 17 17 17 17 17 17 17 17 16 15 14 14 13 14 14 14 14 13 12 11 11 12 12 12 12 12 11 11 10 10 10 10 10 10 11 11